| time (UTC) | temp F | wind direction | speed MPH | gust MPH | rain 1hr in | rain 24hr in | rain mn in | humidity % | barometer mb |
| 20260902053059 | 53 | 63 | 4.0 | 8.0 | 0.00 | 0.00 | 0.00 | 94 | 1021.0 |
| 20260902051544 | 53 | 57 | 3.0 | 5.0 | 0.00 | 0.00 | 0.00 | 94 | 1021.0 |
| 20260902050044 | 53 | 57 | 3.0 | 5.0 | 0.00 | 0.00 | 0.00 | 94 | 1020.7 |
| 20260902044539 | 53 | 52 | 3.0 | 6.0 | 0.00 | 0.00 | 0.00 | 94 | 1020.5 |
| 20260902043038 | 53 | 52 | 3.0 | 7.0 | 0.00 | 0.00 | 0.00 | 94 | 1020.4 |
| 20260902041539 | 53 | 54 | 6.0 | 8.0 | 0.00 | 0.00 | 0.00 | 95 | 1020.3 |
| 20260902040033 | 53 | 131 | 3.0 | 5.0 | 0.00 | 0.00 | 0.00 | 94 | 1020.0 |
| 20260902034534 | 53 | 137 | 3.0 | 5.0 | 0.00 | 0.00 | 0.00 | 95 | 1020.0 |
| 20260902033033 | 52 | 166 | 3.0 | 4.0 | 0.00 | 0.00 | 0.00 | 94 | 1020.1 |
| 20260902031530 | 54 | 167 | 0.0 | 1.0 | 0.00 | 0.00 | 0.00 | 94 | 1019.7 |
| 20260902030030 | 54 | 167 | 0.0 | 2.0 | 0.00 | 0.00 | 0.00 | 94 | 1019.8 |
| 20260902024532 | 54 | 167 | 0.0 | 3.0 | 0.00 | 0.00 | 0.00 | 93 | 1019.8 |
| 20260902023033 | 54 | 167 | 0.0 | 0.0 | 0.00 | 0.00 | 0.00 | 92 | 1019.9 |
| 20260902021528 | 54 | 167 | 1.0 | 3.0 | 0.00 | 0.00 | 0.00 | 92 | 1019.8 |
| 20260902020028 | 55 | 167 | 0.0 | 3.0 | 0.00 | 0.00 | 0.00 | 93 | 1019.8 |
| 20260902014534 | 54 | 167 | 1.0 | 3.0 | 0.00 | 0.00 | 0.00 | 92 | 1019.7 |
| 20260902013026 | 54 | 167 | 0.0 | 2.0 | 0.00 | 0.00 | 0.00 | 90 | 1019.8 |
| 20260902011525 | 55 | 167 | 1.0 | 4.0 | 0.00 | 0.00 | 0.00 | 87 | 1019.6 |
| 20260902010032 | 56 | 167 | 2.0 | 4.0 | 0.00 | 0.00 | 0.00 | 85 | 1019.6 |
| 20260902004522 | 57 | 167 | 2.0 | 4.0 | 0.00 | 0.00 | 0.00 | 86 | 1019.4 |
| 20260902003022 | 57 | 168 | 3.0 | 5.0 | 0.00 | 0.00 | 0.00 | 87 | 1019.3 |
| 20260902001527 | 56 | 173 | 2.0 | 4.0 | 0.00 | 0.00 | 0.00 | 88 | 1019.3 |
| 20260902000028 | 56 | 173 | 1.0 | 3.0 | 0.00 | 0.00 | 0.00 | 88 | 1019.2 |
| 20260901234519 | 58 | 173 | 0.0 | 4.0 | 0.00 | 0.00 | 0.00 | 84 | 1019.2 |
| 20260901233020 | 59 | 174 | 1.0 | 3.0 | 0.00 | 0.00 | 0.00 | 83 | 1019.2 |
| 20260901231517 | 61 | 173 | 0.0 | 3.0 | 0.00 | 0.00 | 0.00 | 78 | 1019.0 |
| 20260901230016 | 63 | 173 | 2.0 | 7.0 | 0.00 | 0.00 | 0.00 | 75 | 1019.0 |
| 20260901224515 | 64 | 148 | 2.0 | 7.0 | 0.00 | 0.00 | 0.00 | 73 | 1018.7 |
| 20260901223013 | 65 | 123 | 3.0 | 7.0 | 0.00 | 0.00 | 0.00 | 71 | 1018.5 |
| 20260901221512 | 66 | 171 | 1.0 | 5.0 | 0.00 | 0.00 | 0.00 | 71 | 1018.6 |
| 20260901220021 | 67 | 210 | 4.0 | 7.0 | 0.00 | 0.00 | 0.00 | 70 | 1018.6 |
| 20260901214510 | 68 | 182 | 4.0 | 7.0 | 0.00 | 0.00 | 0.00 | 70 | 1018.4 |
| 20260901213011 | 68 | 213 | 6.0 | 9.0 | 0.00 | 0.00 | 0.00 | 68 | 1018.2 |
| 20260901211508 | 69 | 200 | 5.0 | 11.0 | 0.00 | 0.00 | 0.00 | 68 | 1018.2 |
| 20260901210008 | 70 | 203 | 5.0 | 9.0 | 0.00 | 0.00 | 0.00 | 65 | 1018.1 |
| 20260901204510 | 70 | 202 | 6.0 | 9.0 | 0.00 | 0.00 | 0.00 | 66 | 1017.9 |
| 20260901203016 | 71 | 203 | 7.0 | 12.0 | 0.00 | 0.00 | 0.00 | 63 | 1017.8 |
| 20260901201506 | 72 | 180 | 6.0 | 11.0 | 0.00 | 0.00 | 0.00 | 58 | 1017.9 |
| 20260901200009 | 74 | 144 | 8.0 | 17.0 | 0.00 | 0.00 | 0.00 | 50 | 1017.9 |
| 20260901194504 | 74 | 360 | 9.0 | 16.0 | 0.00 | 0.00 | 0.00 | 51 | 1018.0 |
| 20260901193005 | 74 | 154 | 8.0 | 17.0 | 0.00 | 0.00 | 0.00 | 51 | 1017.9 |
| 20260901191504 | 74 | 160 | 10.0 | 15.0 | 0.00 | 0.00 | 0.00 | 51 | 1017.9 |
| 20260901190003 | 75 | 180 | 8.0 | 16.0 | 0.00 | 0.00 | 0.00 | 51 | 1017.9 |
| 20260901184508 | 75 | 176 | 9.0 | 16.0 | 0.00 | 0.00 | 0.00 | 52 | 1017.9 |
| 20260901183002 | 75 | 162 | 8.0 | 16.0 | 0.00 | 0.00 | 0.00 | 54 | 1017.8 |
| 20260901181603 | 76 | 161 | 8.0 | 14.0 | 0.00 | 0.00 | 0.00 | 52 | 1017.7 |
| 20260901180100 | 75 | 204 | 9.0 | 14.0 | 0.00 | 0.00 | 0.00 | 55 | 1017.7 |
| 20260901174600 | 74 | 235 | 7.0 | 15.0 | 0.00 | 0.00 | 0.00 | 57 | 1017.6 |
| 20260901173059 | 76 | 213 | 7.0 | 15.0 | 0.00 | 0.00 | 0.00 | 57 | 1017.5 |
| 20260901171558 | 75 | 142 | 8.0 | 16.0 | 0.00 | 0.00 | 0.00 | 59 | 1017.7 |
| 20260901170116 | 76 | 212 | 6.0 | 11.0 | 0.00 | 0.00 | 0.00 | 58 | 1017.6 |
| 20260901164554 | 74 | 220 | 6.0 | 13.0 | 0.00 | 0.00 | 0.00 | 63 | 1017.6 |
| 20260901163054 | 73 | 202 | 5.0 | 10.0 | 0.00 | 0.00 | 0.00 | 67 | 1017.6 |
| 20260901161557 | 73 | 186 | 6.0 | 11.0 | 0.00 | 0.00 | 0.00 | 66 | 1017.8 |
| 20260901160055 | 73 | 205 | 4.0 | 8.0 | 0.00 | 0.00 | 0.00 | 64 | 1017.9 |
| 20260901154554 | 74 | 68 | 2.0 | 10.0 | 0.00 | 0.00 | 0.00 | 59 | 1017.9 |
| 20260901153048 | 72 | 59 | 6.0 | 11.0 | 0.00 | 0.00 | 0.00 | 63 | 1018.0 |
| 20260901151553 | 72 | 68 | 2.0 | 7.0 | 0.00 | 0.00 | 0.00 | 65 | 1017.9 |
| 20260901150100 | 70 | 55 | 1.0 | 5.0 | 0.00 | 0.00 | 0.00 | 68 | 1017.9 |
| 20260901144546 | 70 | 237 | 1.0 | 6.0 | 0.00 | 0.00 | 0.00 | 72 | 1018.0 |
| 20260901143043 | 69 | 226 | 2.0 | 4.0 | 0.00 | 0.00 | 0.00 | 76 | 1018.3 |
| 20260901141542 | 68 | 216 | 2.0 | 5.0 | 0.00 | 0.00 | 0.00 | 75 | 1018.3 |
| 20260901140041 | 67 | 222 | 1.0 | 5.0 | 0.00 | 0.00 | 0.00 | 70 | 1018.3 |
| 20260901134541 | 67 | 113 | 2.0 | 4.0 | 0.00 | 0.00 | 0.00 | 72 | 1018.4 |
| 20260901133038 | 65 | 73 | 0.0 | 4.0 | 0.00 | 0.00 | 0.00 | 73 | 1018.4 |
| 20260901131544 | 65 | 69 | 3.0 | 8.0 | 0.00 | 0.00 | 0.00 | 73 | 1018.1 |
| 20260901130033 | 64 | 54 | 4.0 | 8.0 | 0.00 | 0.00 | 0.00 | 75 | 1018.1 |
| 20260901124531 | 63 | 34 | 4.0 | 6.0 | 0.00 | 0.00 | 0.00 | 75 | 1018.1 |
| 20260901123033 | 61 | 47 | 2.0 | 5.0 | 0.00 | 0.00 | 0.00 | 81 | 1017.9 |
| 20260901121526 | 60 | 37 | 2.0 | 4.0 | 0.00 | 0.00 | 0.00 | 84 | 1018.2 |
| 20260901120020 | 59 | 36 | 0.0 | 3.0 | 0.00 | 0.00 | 0.00 | 86 | 1018.0 |
| 20260901114534 | 57 | 36 | 0.0 | 0.0 | 0.00 | 0.00 | 0.00 | 89 | 1017.8 |
| 20260901113019 | 55 | 36 | 0.0 | 4.0 | 0.00 | 0.00 | 0.00 | 92 | 1017.8 |
| 20260901111512 | 54 | 36 | 1.0 | 3.0 | 0.00 | 0.00 | 0.00 | 92 | 1017.7 |
| 20260901110011 | 54 | 36 | 2.0 | 4.0 | 0.00 | 0.00 | 0.00 | 91 | 1017.5 |
| 20260901104509 | 53 | 36 | 2.0 | 5.0 | 0.00 | 0.00 | 0.00 | 93 | 1017.3 |
| 20260901103015 | 53 | 40 | 4.0 | 7.0 | 0.00 | 0.00 | 0.00 | 94 | 1017.0 |
| 20260901101508 | 51 | 46 | 3.0 | 7.0 | 0.00 | 0.00 | 0.00 | 95 | 1017.1 |
| 20260901100007 | 51 | 38 | 4.0 | 6.0 | 0.00 | 0.01 | 0.00 | 95 | 1017.0 |
| 20260901094508 | 50 | 37 | 3.0 | 5.0 | 0.00 | 0.01 | 0.00 | 95 | 1017.1 |
| 20260901093005 | 50 | 36 | 4.0 | 5.0 | 0.00 | 0.01 | 0.00 | 96 | 1017.1 |
| 20260901091505 | 50 | 36 | 3.0 | 5.0 | 0.00 | 0.01 | 0.00 | 95 | 1017.2 |
| 20260901090007 | 51 | 35 | 3.0 | 5.0 | 0.00 | 0.01 | 0.00 | 95 | 1017.3 |
| 20260901084503 | 51 | 32 | 5.0 | 7.0 | 0.00 | 0.01 | 0.00 | 95 | 1017.3 |
| 20260901083003 | 51 | 19 | 5.0 | 7.0 | 0.00 | 0.01 | 0.00 | 95 | 1017.1 |
| 20260901081502 | 51 | 360 | 4.0 | 6.0 | 0.00 | 0.01 | 0.00 | 95 | 1017.2 |
| 20260901080001 | 51 | 329 | 4.0 | 5.0 | 0.00 | 0.01 | 0.00 | 95 | 1017.2 |
| 20260901074603 | 51 | 304 | 3.0 | 5.0 | 0.00 | 0.01 | 0.00 | 95 | 1017.4 |
| 20260901073100 | 50 | 24 | 3.0 | 5.0 | 0.00 | 0.01 | 0.00 | 95 | 1017.3 |
| 20260901071558 | 50 | 24 | 4.0 | 7.0 | 0.00 | 0.01 | 0.00 | 95 | 1017.4 |
| 20260901070059 | 51 | 309 | 3.0 | 5.0 | 0.00 | 0.01 | 0.00 | 95 | 1017.4 |
| 20260901064558 | 49 | 236 | 2.0 | 3.0 | 0.00 | 0.01 | 0.00 | 95 | 1017.4 |
| 20260901063112 | 50 | 223 | 2.0 | 4.0 | 0.00 | 0.01 | 0.00 | 95 | 1017.5 |
| 20260901061555 | 50 | 204 | 0.0 | 4.0 | 0.00 | 0.01 | 0.00 | 95 | 1017.5 |
| 20260901060054 | 51 | 192 | 1.0 | 3.0 | 0.00 | 0.01 | 0.00 | 95 | 1017.3 |
| 20260901054553 | 51 | 192 | 3.0 | 4.0 | 0.00 | 0.01 | 0.00 | 95 | 1017.4 |